| time (UTC) | temp C | wind direction | speed KPH | gust KPH | rain 1hr cm | rain 24hr cm | rain mn cm | humidity % | barometer mb |
| 20260505003529 | 28 | 232 | 6.4 | 12.9 | 0.00 | 0.00 | 0.00 | 78 | 1008.5 |
| 20260505003104 | 28 | 262 | 4.8 | 12.9 | 0.00 | 0.00 | 0.00 | 77 | 1008.5 |
| 20260505002621 | 28 | 193 | 6.4 | 16.1 | 0.00 | 0.00 | 0.00 | 77 | 1008.6 |
| 20260505002009 | 28 | 236 | 3.2 | 16.1 | 0.00 | 0.00 | 0.00 | 76 | 1008.6 |
| 20260505001531 | 28 | 234 | 4.8 | 14.5 | 0.00 | 0.00 | 0.00 | 76 | 1008.6 |
| 20260505001101 | 28 | 243 | 4.8 | 14.5 | 0.00 | 0.00 | 0.00 | 77 | 1008.5 |
| 20260505000618 | 28 | 225 | 6.4 | 17.7 | 0.00 | 0.00 | 0.00 | 76 | 1008.6 |
| 20260505000146 | 28 | 257 | 8.0 | 17.7 | 0.00 | 0.00 | 0.00 | 76 | 1008.5 |
| 20260504235525 | 28 | 250 | 4.8 | 17.7 | 0.00 | 0.00 | 0.00 | 75 | 1008.5 |
| 20260504235102 | 28 | 242 | 8.0 | 17.7 | 0.00 | 0.00 | 0.00 | 75 | 1008.5 |
| 20260504234638 | 29 | 244 | 8.0 | 14.5 | 0.00 | 0.00 | 0.00 | 75 | 1008.5 |
| 20260504234014 | 29 | 150 | 8.0 | 16.1 | 0.00 | 0.00 | 0.00 | 76 | 1008.6 |
| 20260504233538 | 29 | 282 | 6.4 | 16.1 | 0.00 | 0.00 | 0.00 | 76 | 1008.5 |
| 20260504233105 | 29 | 220 | 4.8 | 16.1 | 0.00 | 0.00 | 0.00 | 76 | 1008.4 |
| 20260504232625 | 29 | 168 | 8.0 | 16.1 | 0.00 | 0.00 | 0.00 | 75 | 1008.6 |
| 20260504232011 | 29 | 200 | 8.0 | 17.7 | 0.00 | 0.00 | 0.00 | 76 | 1008.6 |
| 20260504231541 | 29 | 218 | 8.0 | 17.7 | 0.00 | 0.00 | 0.00 | 75 | 1008.6 |
| 20260504231109 | 29 | 252 | 8.0 | 20.9 | 0.00 | 0.00 | 0.00 | 75 | 1008.7 |
| 20260504230625 | 29 | 190 | 11.3 | 17.7 | 0.00 | 0.00 | 0.00 | 74 | 1008.7 |
| 20260504230039 | 30 | 238 | 11.3 | 17.7 | 0.00 | 0.00 | 0.00 | 73 | 1008.7 |
| 20260504225607 | 30 | 254 | 6.4 | 17.7 | 0.00 | 0.00 | 0.00 | 74 | 1008.8 |
| 20260504225134 | 30 | 169 | 4.8 | 17.7 | 0.00 | 0.00 | 0.00 | 74 | 1008.8 |
| 20260504224520 | 30 | 180 | 9.7 | 17.7 | 0.00 | 0.00 | 0.00 | 74 | 1008.9 |
| 20260504224053 | 30 | 187 | 9.7 | 17.7 | 0.00 | 0.00 | 0.00 | 74 | 1008.9 |
| 20260504223610 | 30 | 194 | 11.3 | 22.5 | 0.00 | 0.00 | 0.00 | 73 | 1008.8 |
| 20260504223017 | 30 | 178 | 8.0 | 22.5 | 0.00 | 0.00 | 0.00 | 74 | 1008.9 |
| 20260504222529 | 30 | 211 | 6.4 | 17.7 | 0.00 | 0.00 | 0.00 | 75 | 1008.9 |
| 20260504222050 | 29 | 220 | 8.0 | 20.9 | 0.00 | 0.00 | 0.00 | 75 | 1008.9 |
| 20260504221608 | 30 | 244 | 11.3 | 20.9 | 0.00 | 0.00 | 0.00 | 75 | 1008.9 |
| 20260504221018 | 30 | 200 | 9.7 | 16.1 | 0.00 | 0.00 | 0.00 | 74 | 1009.0 |
| 20260504220541 | 30 | 217 | 6.4 | 20.9 | 0.00 | 0.00 | 0.00 | 74 | 1009.0 |
| 20260504220003 | 30 | 194 | 9.7 | 22.5 | 0.00 | 0.00 | 0.00 | 74 | 1009.0 |
| 20260504215519 | 30 | 177 | 6.4 | 16.1 | 0.00 | 0.00 | 0.00 | 74 | 1009.0 |
| 20260504215056 | 30 | 251 | 8.0 | 16.1 | 0.00 | 0.00 | 0.00 | 74 | 1009.0 |
| 20260504214614 | 30 | 199 | 4.8 | 16.1 | 0.00 | 0.00 | 0.00 | 75 | 1009.1 |
| 20260504214004 | 30 | 179 | 6.4 | 24.1 | 0.00 | 0.00 | 0.00 | 76 | 1009.1 |
| 20260504213523 | 29 | 181 | 9.7 | 24.1 | 0.00 | 0.00 | 0.00 | 76 | 1009.2 |
| 20260504213109 | 30 | 167 | 11.3 | 27.4 | 0.00 | 0.00 | 0.00 | 75 | 1009.2 |
| 20260504212632 | 30 | 220 | 14.5 | 22.5 | 0.00 | 0.00 | 0.00 | 74 | 1009.1 |
| 20260504212013 | 30 | 208 | 8.0 | 19.3 | 0.00 | 0.00 | 0.00 | 74 | 1009.2 |
| 20260504211531 | 30 | 258 | 8.0 | 17.7 | 0.00 | 0.00 | 0.00 | 74 | 1009.2 |
| 20260504211106 | 30 | 238 | 4.8 | 19.3 | 0.00 | 0.00 | 0.00 | 73 | 1009.3 |
| 20260504210628 | 30 | 209 | 8.0 | 19.3 | 0.00 | 0.00 | 0.00 | 72 | 1009.3 |
| 20260504210049 | 31 | 265 | 9.7 | 17.7 | 0.00 | 0.00 | 0.00 | 72 | 1009.3 |
| 20260504205539 | 31 | 211 | 11.3 | 20.9 | 0.00 | 0.00 | 0.00 | 72 | 1009.3 |
| 20260504205106 | 31 | 213 | 11.3 | 20.9 | 0.00 | 0.00 | 0.00 | 73 | 1009.4 |
| 20260504204639 | 30 | 265 | 9.7 | 17.7 | 0.00 | 0.00 | 0.00 | 73 | 1009.4 |
| 20260504204010 | 30 | 260 | 8.0 | 19.3 | 0.00 | 0.00 | 0.00 | 73 | 1009.5 |
| 20260504203534 | 30 | 265 | 8.0 | 19.3 | 0.00 | 0.00 | 0.00 | 73 | 1009.7 |
| 20260504203043 | 30 | 270 | 11.3 | 27.4 | 0.00 | 0.00 | 0.00 | 73 | 1009.7 |
| 20260504202603 | 30 | 238 | 8.0 | 27.4 | 0.00 | 0.00 | 0.00 | 72 | 1009.8 |
| 20260504202003 | 31 | 261 | 9.7 | 22.5 | 0.00 | 0.00 | 0.00 | 72 | 1009.8 |
| 20260504201518 | 31 | 228 | 6.4 | 19.3 | 0.00 | 0.00 | 0.00 | 72 | 1009.8 |
| 20260504201100 | 31 | 269 | 8.0 | 17.7 | 0.00 | 0.00 | 0.00 | 72 | 1009.9 |
| 20260504200624 | 31 | 219 | 9.7 | 17.7 | 0.00 | 0.00 | 0.00 | 72 | 1009.8 |
| 20260504200043 | 31 | 213 | 6.4 | 17.7 | 0.00 | 0.00 | 0.00 | 73 | 1009.9 |
| 20260504195532 | 31 | 246 | 9.7 | 22.5 | 0.00 | 0.00 | 0.00 | 72 | 1009.9 |
| 20260504195103 | 31 | 211 | 8.0 | 22.5 | 0.00 | 0.00 | 0.00 | 73 | 1010.0 |
| 20260504194619 | 31 | 242 | 8.0 | 19.3 | 0.00 | 0.00 | 0.00 | 72 | 1010.1 |
| 20260504194004 | 31 | 255 | 6.4 | 17.7 | 0.00 | 0.00 | 0.00 | 73 | 1010.0 |
| 20260504193525 | 31 | 177 | 8.0 | 17.7 | 0.00 | 0.00 | 0.00 | 72 | 1010.0 |
| 20260504193100 | 31 | 193 | 9.7 | 19.3 | 0.00 | 0.00 | 0.00 | 73 | 1010.1 |
| 20260504192614 | 31 | 188 | 11.3 | 19.3 | 0.00 | 0.00 | 0.00 | 72 | 1010.1 |
| 20260504192013 | 31 | 251 | 8.0 | 20.9 | 0.00 | 0.00 | 0.00 | 71 | 1010.1 |
| 20260504191530 | 31 | 221 | 8.0 | 19.3 | 0.00 | 0.00 | 0.00 | 71 | 1010.1 |
| 20260504191054 | 31 | 236 | 6.4 | 17.7 | 0.00 | 0.00 | 0.00 | 71 | 1010.1 |
| 20260504190617 | 31 | 219 | 6.4 | 19.3 | 0.00 | 0.00 | 0.00 | 70 | 1010.1 |
| 20260504190014 | 31 | 225 | 6.4 | 19.3 | 0.00 | 0.00 | 0.00 | 71 | 1010.0 |
| 20260504185528 | 31 | 202 | 6.4 | 17.7 | 0.00 | 0.00 | 0.00 | 70 | 1010.0 |
| 20260504185100 | 31 | 229 | 8.0 | 16.1 | 0.00 | 0.00 | 0.00 | 70 | 1010.0 |
| 20260504184615 | 31 | 182 | 9.7 | 14.5 | 0.00 | 0.00 | 0.00 | 69 | 1010.0 |
| 20260504184008 | 31 | 255 | 8.0 | 14.5 | 0.00 | 0.00 | 0.00 | 69 | 1010.0 |
| 20260504183529 | 31 | 217 | 6.4 | 14.5 | 0.00 | 0.00 | 0.00 | 69 | 1010.1 |
| 20260504183114 | 31 | 236 | 6.4 | 14.5 | 0.00 | 0.00 | 0.00 | 69 | 1010.1 |
| 20260504182634 | 31 | 203 | 6.4 | 14.5 | 0.00 | 0.00 | 0.00 | 68 | 1010.2 |
| 20260504182050 | 31 | 216 | 8.0 | 17.7 | 0.00 | 0.00 | 0.00 | 68 | 1010.2 |
| 20260504181604 | 31 | 205 | 6.4 | 12.9 | 0.00 | 0.00 | 0.00 | 68 | 1010.2 |
| 20260504181017 | 31 | 224 | 6.4 | 16.1 | 0.00 | 0.00 | 0.00 | 68 | 1010.3 |
| 20260504180529 | 31 | 211 | 6.4 | 16.1 | 0.00 | 0.00 | 0.00 | 68 | 1010.3 |
| 20260504180042 | 30 | 233 | 6.4 | 14.5 | 0.00 | 0.00 | 0.00 | 68 | 1010.3 |
| 20260504175620 | 30 | 236 | 4.8 | 14.5 | 0.00 | 0.00 | 0.00 | 69 | 1010.4 |
| 20260504175015 | 30 | 224 | 8.0 | 16.1 | 0.00 | 0.00 | 0.00 | 69 | 1010.3 |
| 20260504174532 | 30 | 202 | 9.7 | 16.1 | 0.00 | 0.00 | 0.00 | 69 | 1010.4 |
| 20260504174057 | 30 | 237 | 8.0 | 16.1 | 0.00 | 0.00 | 0.00 | 68 | 1010.5 |
| 20260504173615 | 30 | 246 | 9.7 | 16.1 | 0.00 | 0.00 | 0.00 | 68 | 1010.5 |
| 20260504173005 | 30 | 244 | 6.4 | 14.5 | 0.00 | 0.00 | 0.00 | 69 | 1010.5 |
| 20260504172518 | 30 | 188 | 8.0 | 14.5 | 0.00 | 0.00 | 0.00 | 68 | 1010.6 |
| 20260504172056 | 30 | 231 | 9.7 | 14.5 | 0.00 | 0.00 | 0.00 | 67 | 1010.6 |
| 20260504171617 | 30 | 201 | 6.4 | 12.9 | 0.00 | 0.00 | 0.00 | 67 | 1010.6 |
| 20260504171137 | 30 | 258 | 4.8 | 12.9 | 0.00 | 0.00 | 0.00 | 67 | 1010.7 |
| 20260504170519 | 30 | 190 | 8.0 | 12.9 | 0.00 | 0.00 | 0.00 | 67 | 1010.8 |
| 20260504160125 | 29 | 246 | 3.2 | 12.9 | 0.00 | 0.00 | 0.00 | 69 | 1010.5 |
| 20260504151058 | 28 | 223 | 4.8 | 8.0 | 0.00 | 0.00 | 0.00 | 69 | 1010.3 |
| 20260504150616 | 27 | 255 | 1.6 | 6.4 | 0.00 | 0.00 | 0.00 | 69 | 1010.3 |
| 20260504141058 | 26 | 53 | 0.0 | 4.8 | 0.00 | 0.00 | 0.00 | 68 | 1010.3 |
| 20260504140621 | 26 | 53 | 0.0 | 3.2 | 0.00 | 0.00 | 0.00 | 68 | 1010.3 |
| 20260504130528 | 25 | 157 | 0.0 | 3.2 | 0.00 | 0.00 | 0.00 | 80 | 1010.0 |
| 20260504110621 | 25 | 157 | 0.0 | 1.6 | 0.00 | 0.00 | 0.00 | 80 | 1009.7 |
| 20260504081607 | 27 | 188 | 0.0 | 3.2 | 0.00 | 0.00 | 0.00 | 83 | 1010.6 |
| 20260504081012 | 27 | 188 | 1.6 | 4.8 | 0.00 | 0.00 | 0.00 | 83 | 1010.7 |
| 20260504080535 | 27 | 188 | 1.6 | 4.8 | 0.00 | 0.00 | 0.00 | 82 | 1010.7 |
| 20260504050616 | 27 | 219 | 3.2 | 6.4 | 0.00 | 0.00 | 0.00 | 83 | 1011.5 |
| 20260504050003 | 27 | 210 | 1.6 | 6.4 | 0.00 | 0.00 | 0.00 | 83 | 1011.5 |
| 20260504045525 | 27 | 238 | 3.2 | 6.4 | 0.00 | 0.00 | 0.00 | 83 | 1011.5 |
| 20260504045057 | 27 | 227 | 1.6 | 6.4 | 0.00 | 0.00 | 0.00 | 83 | 1011.5 |
| 20260504044613 | 27 | 237 | 3.2 | 8.0 | 0.00 | 0.00 | 0.00 | 84 | 1011.5 |
| 20260504044013 | 27 | 221 | 3.2 | 6.4 | 0.00 | 0.00 | 0.00 | 84 | 1011.5 |
| 20260504043535 | 27 | 268 | 1.6 | 6.4 | 0.00 | 0.00 | 0.00 | 83 | 1011.6 |
| 20260504043105 | 27 | 232 | 1.6 | 6.4 | 0.00 | 0.00 | 0.00 | 83 | 1011.5 |
| 20260504042626 | 27 | 227 | 3.2 | 6.4 | 0.00 | 0.00 | 0.00 | 83 | 1011.5 |
| 20260504042028 | 27 | 221 | 1.6 | 6.4 | 0.00 | 0.00 | 0.00 | 83 | 1011.4 |
| 20260504041541 | 27 | 213 | 1.6 | 4.8 | 0.00 | 0.00 | 0.00 | 83 | 1011.3 |
| 20260504041057 | 27 | 210 | 1.6 | 6.4 | 0.00 | 0.00 | 0.00 | 83 | 1011.3 |
| 20260504040613 | 27 | 216 | 1.6 | 6.4 | 0.00 | 0.00 | 0.00 | 83 | 1011.2 |
| 20260504040015 | 27 | 249 | 0.0 | 4.8 | 0.00 | 0.00 | 0.00 | 83 | 1011.3 |
| 20260504035535 | 27 | 250 | 1.6 | 6.4 | 0.00 | 0.00 | 0.00 | 83 | 1011.2 |
| 20260504035102 | 27 | 258 | 1.6 | 6.4 | 0.00 | 0.00 | 0.00 | 83 | 1011.2 |
| 20260504034621 | 27 | 213 | 1.6 | 6.4 | 0.00 | 0.00 | 0.00 | 83 | 1011.0 |
| 20260504034015 | 27 | 250 | 3.2 | 9.7 | 0.00 | 0.00 | 0.00 | 83 | 1010.9 |
| 20260504033532 | 27 | 265 | 1.6 | 9.7 | 0.00 | 0.00 | 0.00 | 83 | 1010.8 |
| 20260504033053 | 27 | 240 | 1.6 | 6.4 | 0.00 | 0.00 | 0.00 | 83 | 1010.8 |
| 20260504032617 | 27 | 252 | 0.0 | 6.4 | 0.00 | 0.00 | 0.00 | 83 | 1010.7 |
| 20260504032012 | 27 | 241 | 0.0 | 6.4 | 0.00 | 0.00 | 0.00 | 83 | 1010.6 |
| 20260504031529 | 27 | 238 | 3.2 | 6.4 | 0.00 | 0.00 | 0.00 | 83 | 1010.6 |
| 20260504031056 | 27 | 252 | 1.6 | 6.4 | 0.00 | 0.00 | 0.00 | 83 | 1010.5 |
| 20260504030615 | 27 | 255 | 3.2 | 6.4 | 0.00 | 0.00 | 0.00 | 83 | 1010.5 |
| 20260504030016 | 27 | 192 | 0.0 | 8.0 | 0.00 | 0.00 | 0.00 | 83 | 1010.4 |
| 20260504025537 | 27 | 205 | 1.6 | 9.7 | 0.00 | 0.00 | 0.00 | 83 | 1010.4 |
| 20260504025103 | 27 | 182 | 4.8 | 9.7 | 0.00 | 0.00 | 0.00 | 83 | 1010.3 |
| 20260504024622 | 27 | 188 | 3.2 | 8.0 | 0.00 | 0.00 | 0.00 | 83 | 1010.3 |
| 20260504024022 | 27 | 210 | 1.6 | 8.0 | 0.00 | 0.00 | 0.00 | 83 | 1010.2 |
| 20260504023535 | 27 | 205 | 0.0 | 11.3 | 0.00 | 0.00 | 0.00 | 83 | 1010.2 |
| 20260504023105 | 27 | 187 | 4.8 | 11.3 | 0.00 | 0.00 | 0.00 | 83 | 1010.1 |
| 20260504022626 | 27 | 235 | 3.2 | 11.3 | 0.00 | 0.00 | 0.00 | 83 | 1010.0 |
| 20260504022037 | 27 | 245 | 4.8 | 11.3 | 0.00 | 0.00 | 0.00 | 83 | 1010.0 |
| 20260504021559 | 27 | 230 | 1.6 | 11.3 | 0.00 | 0.00 | 0.00 | 83 | 1009.9 |
| 20260504021051 | 27 | 227 | 4.8 | 11.3 | 0.00 | 0.00 | 0.00 | 83 | 1009.8 |
| 20260504020606 | 27 | 235 | 3.2 | 9.7 | 0.00 | 0.00 | 0.00 | 82 | 1009.7 |
| 20260504020016 | 27 | 227 | 3.2 | 8.0 | 0.00 | 0.00 | 0.00 | 82 | 1009.7 |
| 20260504015529 | 27 | 207 | 3.2 | 12.9 | 0.00 | 0.00 | 0.00 | 82 | 1009.6 |
| 20260504015049 | 27 | 186 | 6.4 | 16.1 | 0.00 | 0.00 | 0.00 | 82 | 1009.6 |
| 20260504014619 | 27 | 195 | 4.8 | 16.1 | 0.00 | 0.00 | 0.00 | 82 | 1009.5 |
| 20260504014011 | 27 | 185 | 3.2 | 11.3 | 0.00 | 0.00 | 0.00 | 82 | 1009.4 |
| 20260504013530 | 28 | 250 | 4.8 | 12.9 | 0.00 | 0.00 | 0.00 | 82 | 1009.4 |
| 20260504013055 | 27 | 242 | 4.8 | 12.9 | 0.00 | 0.00 | 0.00 | 81 | 1009.4 |
| 20260504012615 | 28 | 244 | 6.4 | 12.9 | 0.00 | 0.00 | 0.00 | 81 | 1009.5 |
| 20260504012131 | 28 | 206 | 4.8 | 9.7 | 0.00 | 0.00 | 0.00 | 82 | 1009.5 |
| 20260504011515 | 28 | 207 | 4.8 | 11.3 | 0.00 | 0.00 | 0.00 | 82 | 1009.5 |
| 20260504011105 | 28 | 217 | 6.4 | 11.3 | 0.00 | 0.00 | 0.00 | 82 | 1009.6 |
| 20260504010620 | 28 | 248 | 4.8 | 11.3 | 0.00 | 0.00 | 0.00 | 82 | 1009.5 |
| 20260504010038 | 28 | 185 | 4.8 | 12.9 | 0.00 | 0.00 | 0.00 | 82 | 1009.6 |
| 20260504005616 | 28 | 236 | 4.8 | 12.9 | 0.00 | 0.00 | 0.00 | 82 | 1009.6 |
| 20260504005011 | 28 | 251 | 6.4 | 16.1 | 0.00 | 0.00 | 0.00 | 82 | 1009.6 |
| 20260504004531 | 28 | 188 | 11.3 | 16.1 | 0.00 | 0.00 | 0.00 | 82 | 1009.6 |
| 20260504004101 | 28 | 213 | 3.2 | 11.3 | 0.00 | 0.00 | 0.00 | 82 | 1009.5 |